Chehalis, WA
on Tuesday, November 27, 2012

Tuesday
Previous Day Next Day
Daily Summary
 ActualAverage (KOLM)Record (KOLM)
Temperature
Mean Temperature °F 41°F  
Max Temperature 48°F 47°F 57°F (1959)
Min Temperature 32°F 34°F 17°F (1958)
Degree Days
Heating Degree Days 25 24  
Month to date heating degree days 576  
Since 1 July heating degree days 1370  
Cooling Degree Days 0 0  
Month to date cooling degree days 0  
Year to date cooling degree days 106  
Moisture
Dew Point 35°F   
Average Humidity 92    
Maximum Humidity 100    
Minimum Humidity 66    
Precipitation
Precipitation 0.00 in 0.30 in 1.60 in (1984)
Month to date precipitation 7.73  
Year to date precipitation 41.64  
Wind
Wind Speed 1 mph   
Max Wind Speed 6 mph   
Max Gust Speed mph   
Visibility 7 miles   
Events Fog   

Key: T is trace of precipitation, MM is missing value
Source: NWS Daily Summary
Time(PST)TemperatureDew PointHumidity Pressure Visibility Wind DirectionWind SpeedGust SpeedPrecipitationEvents Conditions
12:15 AM 32.0°F 32.0°F 100% 30.10 in 6.0 miles South 3.5 mph - N/A   Overcast
12:35 AM 32.0°F 32.0°F 100% 30.11 in 10.0 miles Calm Calm - N/A   Overcast
12:55 AM 32.0°F 32.0°F 100% 30.11 in 8.0 miles Calm Calm - N/A   Overcast
1:15 AM 32.0°F 32.0°F 100% 30.10 in 8.0 miles Calm Calm - N/A   Overcast
1:35 AM 32.0°F 32.0°F 100% 30.09 in 10.0 miles SW 3.5 mph - N/A   Overcast
1:55 AM 32.0°F 32.0°F 100% 30.09 in 6.0 miles Calm Calm - N/A   Overcast
2:15 AM 32.0°F 32.0°F 100% 30.10 in 1.0 miles SW 3.5 mph - N/A   Overcast
2:35 AM 32.0°F 32.0°F 100% 30.10 in 1.8 miles South 3.5 mph - N/A   Overcast
2:55 AM 32.0°F 32.0°F 100% 30.10 in 7.0 miles Calm Calm - N/A   Overcast
3:15 AM 32.0°F 32.0°F 100% 30.09 in 5.0 miles South 3.5 mph - N/A   Overcast
3:35 AM 32.0°F 32.0°F 100% 30.09 in 7.0 miles Calm Calm - N/A   Overcast
3:55 AM 32.0°F 32.0°F 100% 30.08 in 7.0 miles South 3.5 mph - N/A   Overcast
4:15 AM 32.0°F 32.0°F 100% 30.08 in 7.0 miles WSW 3.5 mph - N/A   Overcast
4:35 AM 33.8°F 32.0°F 93% 30.08 in 10.0 miles SSW 5.8 mph - N/A   Overcast
4:55 AM 32.0°F 32.0°F 100% 30.08 in 10.0 miles SSW 3.5 mph - N/A   Overcast
5:15 AM 32.0°F 32.0°F 100% 30.07 in 10.0 miles Calm Calm - N/A   Scattered Clouds
5:35 AM 32.0°F 32.0°F 100% 30.07 in 10.0 miles Calm Calm - N/A   Clear
5:55 AM 32.0°F 32.0°F 100% 30.07 in 8.0 miles Calm Calm - N/A   Scattered Clouds
6:15 AM 32.0°F 32.0°F 100% 30.08 in 6.0 miles Calm Calm - N/A   Clear
6:35 AM 32.0°F 32.0°F 100% 30.07 in 7.0 miles Calm Calm - N/A   Partly Cloudy
6:55 AM 32.0°F 32.0°F 100% 30.08 in 10.0 miles Calm Calm - N/A   Mostly Cloudy
7:15 AM 32.0°F 32.0°F 100% 30.08 in 7.0 miles Calm Calm - N/A   Overcast
7:35 AM 32.0°F 32.0°F 100% 30.07 in 10.0 miles Calm Calm - N/A   Mostly Cloudy
7:55 AM 32.0°F 32.0°F 100% 30.07 in 5.0 miles Calm Calm - N/A   Mostly Cloudy
8:15 AM 32.0°F 32.0°F 100% 30.08 in 0.8 miles Calm Calm - N/A   Mostly Cloudy
8:35 AM 32.0°F 32.0°F 100% 30.09 in 1.8 miles Calm Calm - N/A   Overcast
8:55 AM 32.0°F 32.0°F 100% 30.09 in 1.2 miles Calm Calm - N/A   Overcast
9:15 AM 32.0°F 32.0°F 100% 30.09 in 2.5 miles Calm Calm - N/A   Overcast
9:35 AM 33.8°F 32.0°F 93% 30.08 in 10.0 miles Calm Calm - N/A   Scattered Clouds
9:55 AM 33.8°F 33.8°F 100% 30.08 in 9.0 miles Calm Calm - N/A   Clear
10:15 AM 35.6°F 35.6°F 100% 30.08 in 10.0 miles Calm Calm - N/A   Clear
10:35 AM 37.4°F 35.6°F 93% 30.08 in 10.0 miles SW 3.5 mph - N/A   Clear
10:55 AM 39.2°F 35.6°F 87% 30.07 in 8.0 miles Calm Calm - N/A   Clear
11:15 AM 41.0°F 35.6°F 81% 30.06 in 10.0 miles SSE 4.6 mph - N/A   Clear
11:35 AM 41.0°F 35.6°F 81% 30.06 in 10.0 miles South 4.6 mph - N/A   Clear
11:55 AM 44.6°F 35.6°F 71% 30.04 in 10.0 miles South 4.6 mph - N/A   Clear
12:15 PM 44.6°F 35.6°F 71% 30.03 in 10.0 miles South 3.5 mph - N/A   Clear
12:35 PM 46.4°F 37.4°F 71% 30.03 in 10.0 miles SW 3.5 mph - N/A   Clear
12:55 PM 46.4°F 39.2°F 76% 30.02 in 8.0 miles NNW 3.5 mph - N/A   Clear
1:15 PM 46.4°F 37.4°F 71% 30.02 in 10.0 miles Calm Calm - N/A   Clear
1:35 PM 46.4°F 37.4°F 71% 30.01 in 9.0 miles Calm Calm - N/A   Clear
1:55 PM 48.2°F 37.4°F 66% 30.00 in 10.0 miles Calm Calm - N/A   Clear
2:15 PM 48.2°F 37.4°F 66% 30.00 in 10.0 miles Calm Calm - N/A   Scattered Clouds
2:35 PM 48.2°F 37.4°F 66% 29.99 in 10.0 miles Calm Calm - N/A   Mostly Cloudy
3:15 PM 48.2°F 39.2°F 71% 29.98 in 10.0 miles Calm Calm - N/A   Partly Cloudy
3:35 PM 48.2°F 39.2°F 71% 29.98 in 10.0 miles Calm Calm - N/A   Scattered Clouds
3:55 PM 46.4°F 39.2°F 76% 29.98 in 10.0 miles Calm Calm - N/A   Overcast
4:15 PM 46.4°F 39.2°F 76% 29.98 in 7.0 miles SW 3.5 mph - N/A   Mostly Cloudy
4:55 PM 44.6°F 39.2°F 81% 29.97 in 10.0 miles Calm Calm - N/A   Mostly Cloudy
5:15 PM 44.6°F 39.2°F 81% 29.96 in 9.0 miles Calm Calm - N/A   Partly Cloudy
5:35 PM 41.0°F 39.2°F 93% 29.97 in 9.0 miles Calm Calm - N/A   Clear
6:15 PM 41.0°F 39.2°F 93% 29.96 in 10.0 miles Calm Calm - N/A   Clear
6:35 PM 39.2°F 39.2°F 100% 29.96 in 8.0 miles Calm Calm - N/A   Clear
6:55 PM 39.2°F 39.2°F 100% 29.95 in 10.0 miles Calm Calm - N/A   Clear
7:15 PM 39.2°F 37.4°F 93% 29.95 in 10.0 miles Calm Calm - N/A   Clear
7:35 PM 39.2°F 37.4°F 93% 29.94 in 5.0 miles Calm Calm - N/A   Clear
7:55 PM 39.2°F 37.4°F 93% 29.94 in 9.0 miles Calm Calm - N/A   Clear
8:15 PM 37.4°F 37.4°F 100% 29.93 in 9.0 miles Calm Calm - N/A   Clear
8:35 PM 37.4°F 37.4°F 100% 29.94 in 8.0 miles Calm Calm - N/A   Clear
8:55 PM 37.4°F 37.4°F 100% 29.94 in 9.0 miles Calm Calm - N/A   Clear
9:15 PM 37.4°F 37.4°F 100% 29.93 in 8.0 miles Calm Calm - N/A   Clear
9:35 PM 37.4°F 37.4°F 100% 29.92 in 4.0 miles Calm Calm - N/A   Clear
9:55 PM 37.4°F 37.4°F 100% 29.92 in 7.0 miles SW 3.5 mph - N/A   Clear
10:15 PM 37.4°F 37.4°F 100% 29.92 in 5.0 miles Calm Calm - N/A   Mostly Cloudy
10:35 PM 37.4°F 37.4°F 100% 29.92 in 0.5 miles SW 3.5 mph - N/A Fog Fog
10:55 PM 37.4°F 37.4°F 100% 29.92 in 3.0 miles Calm Calm - N/A   Mostly Cloudy
11:15 PM 37.4°F 37.4°F 100% 29.91 in 5.0 miles Calm Calm - N/A   Overcast
11:35 PM 37.4°F 35.6°F 93% 29.92 in 0.5 miles SSW 3.5 mph - N/A Fog Fog
11:55 PM 35.6°F 35.6°F 100% 29.91 in 0.2 miles Calm Calm - N/A Fog Fog
Moon Phase
Nov. 27 Nov. 28 Dec. 06 Dec. 13 Dec. 20
Sunrise:07:31 AM (PST) Moon Rise:04:03 PM (PST)11/27
Sunset:04:27 PM (PST) Moon Set:06:40 AM (PST)11/27

Copyright © 2014 The Weather Underground, Inc.